Location: ???????
(55.3754°N, 39.3545°E)
Time: 07:21:45
(UTC+00:00)

ARIANE 6 FM1 Upper Stage - Pass Details

Date: 14 April 2026
Orbit: 526 x 602 km, 62.0° (Epoch: 12 May)

Event Time Altitude Azimuth Distance (km) Brightness Sun altitude
Rises 20:00:04 0° 287° (WNW) 2,700 6.7 -22.7°
Reaches altitude 10° 20:02:29 10° 298° (WNW) 1,798 5.9 -22.9°
Maximum altitude 20:06:06 31° 2° (N) 948 4.4 -23.0°
Drops below altitude 10° 20:09:42 10° 66° (ENE) 1,779 5.2 -23.2°
Enters shadow 20:10:28 - 71° (ENE) 2,060 5.5 -23.2°
